DELTA 1 R/B, 3094

Orbit data source: Space-Track

DELTA 1 R/B, 3094 is space debris in LEO originally from a launch on Thu, 11 Jan 1968 UTC launched from the Air Force Western Test Range (AFWTR). Debris objects in space refer to the collection of defunct objects orbiting the Earth. Examples of debris include non-operational satellites, rocket bodies, and fragments generated from explosions, collisions, or faulty payload assembly.

Loading next visibility...
Identifier
3094, 1968-002B
Orbit
LEO
Country
Flag of USUS
Related business
Manufacturer
UTC
Mission
Spacecraft
Bus & Motor
FW4, Unknown motor
Mass
~40 kg wet, ~40 kg dry
Launch date (UTC)
1968-01-11 (58 years ago)
Launch vehicle
Unknown
Launch site
Air Force Western Test Range (AFWTR)
Object type
Payload
Rocket body
Debris
Shape & HBR
Cyl, 0.8 m
Radar Cross Section
0.687 m², Medium (>0.1 m² and < 1m²)

Expand to show TLE details & history
Last TLE update: 20 hours ago

TLE from 20 hours ago
0 DELTA 1 R/B
1 03094U 68002B   25261.06619091 -.00000044  00000-0  10061-3 0  9990
2 03094 105.8102 113.8963 0312501 129.2750  23.8973 12.85259841704990
Epoch: 2025-09-18T01:35Z
TLE epoch observation values (Epoch: 2025-09-18T01:35:18.894Z)
Latitude
24.33334°
Longitude
-79.84663°
Altitude
1,104.188 km
Speed
7.405 km/s
True Right ascension
20h 04m 51s
True Declination
24° 12' 38"
Sunlit
Object was in daylight at epoch
Visualization orbit readout
Latitude
Unknown
Longitude
Unknown
Altitude
Unknown
Speed
Unknown
Apparent Right ascension
Unknown
Apparent Declination
Unknown
Sunlit
N/A
Visualization observer readout
Local Sidereal Time
14:12:13
Azimuth
Unknown
Elevation
Unknown
Doppler factor
Unknown
Orbital elements
Apogee altitude
1,558.683 km
Perigee altitude
1,077.662 km
Semi-major axis
7,696.31 km
Eccentricity
0.03125
Inclination
105.8102°
RAAN
113.8963°
Arg. of periapsis
129.275°
True anomaly
25.40143°
Mean anomaly
23.8973°
Eccentric anomaly
24.6439°
Mean motion
3.21454 °/min
Orbital period
111.99 mins
BSTAR
0.00010061
Loading maneuver chart data...
Computing Atmospheric mass density...
Loading historical data...
Loading historical data...
Loading historical data...
Loading historical data...
Loading historical data...
Loading historical data...
Loading historical data...

Documentation

Showing up to 5 results
|